Regional Weather Roundup
Issued by NWS

Home | Current Version | Previous Version | Graphics & Text | Print | Product List | Glossary On
Versions: 1 2 3 4 5 6 7 8 9 10 11 12 13 14 15 16 17 18 19 20 21 22 23 24 25 26 27 28 29 30 31 32 33 34 35 36 37 38 39 40 41 42 43 44 45 46 47 48 49 50
000
ASUS43 KMKX 151159
RWRWI

WISCONSIN REGIONAL WEATHER ROUNDUP
NATIONAL WEATHER SERVICE MILWAUKEE/SULLIVAN WI
600 AM CST FRI DEC 15 2017

NOTE: "FAIR" INDICATES FEW OR NO CLOUDS BELOW 12,000 FEET WITH NO
SIGNIFICANT WEATHER AND/OR OBSTRUCTIONS TO VISIBILITY.

WIZ001-002-006>008-014>016-023>028-151300-
NORTHWEST WISCONSIN

CITY           SKY/WX    TMP DP  RH WIND       PRES   REMARKS
SUPERIOR ARPT  CLOUDY    15   8  74 NW8       29.90S WCI   4
6HR MIN TEMP:  13; 6HR MAX TEMP:  16;

ASHLAND        CLOUDY    14   9  80 SW8       29.86S WCI   3
6HR MIN TEMP:  13; 6HR MAX TEMP:  16; 6HR PCP: TRACE;

HAYWARD        FLURRIES  14   8  77 VRB5      29.85S WCI   6
6HR MIN TEMP:  14; 6HR MAX TEMP:  17; 6HR PCP: TRACE;

SIREN          CLOUDY    15   7  72 N5        29.90F WCI   7
CUMBERLAND     CLOUDY    12   7  79 W9        29.87S WCI   0
RICE LAKE      CLOUDY    15   9  76 CALM      29.90R
CHETEK         CLOUDY    16   9  75 NW7       29.89R WCI   6
LADYSMITH      CLOUDY    15  10  80 W9        29.87S WCI   4
6HR MIN TEMP:  15; 6HR MAX TEMP:  18;

EAU CLAIRE     NOT AVBL
MENOMONIE      CLOUDY    20  15  81 NW7       29.90S WCI  11
6HR MIN TEMP:  18; 6HR MAX TEMP:  22;

NEW RICHMOND   CLOUDY    19  13  78 N9        29.90S WCI   8
OSCEOLA        CLOUDY    19  13  78 N6        29.94S WCI  10
$$

WIZ003>005-009-010-017-018-151300-
NORTH CENTRAL WISCONSIN

CITY           SKY/WX    TMP DP  RH WIND       PRES   REMARKS
MANITOWISH WTR FLURRIES  11   8  87 W9        29.77S WCI  -1
ARBOR VITAE    LGT SNOW  14  10  85 W5        29.77R WCI   6
WOODRUFF       LGT SNOW  14  10  85 W5        29.77R WCI   6
RHINELANDER    LGT SNOW  12   8  84 W7        29.77R FOG     WCI   1
6HR MIN TEMP:  12; 6HR MAX TEMP:  15; 6HR PCP: TRACE;

EAGLE RIVER    FLURRIES  11   6  81 W8        29.74S WCI  -1
6HR MIN TEMP:   8; 6HR MAX TEMP:  15;

LAND O LAKES   LGT SNOW  12   9  87 W7        29.75S WCI   1
6HR MIN TEMP:  10; 6HR MAX TEMP:  15;

PHILLIPS       LGT SNOW  12   9  87 W5        29.81R WCI   4
6HR MIN TEMP:  12; 6HR MAX TEMP:  15;

TOMAHAWK       CLOUDY    12   8  81 NW8       29.80R WCI   1
MEDFORD        CLOUDY    15  10  83 NW10      29.80R WCI   2
MERRILL        FLURRIES  15  10  82 N3        29.81R
6HR MIN TEMP:  15; 6HR MAX TEMP:  18;

$$

WIZ029-030-035-036-043>047-151300-
CENTRAL WISCONSIN

CITY           SKY/WX    TMP DP  RH WIND       PRES   REMARKS
WAUSAU         CLOUDY    17  12  80 NW10      29.80R WCI   5
6HR MIN TEMP:  16; 6HR MAX TEMP:  18; 6HR PCP: TRACE;

MOSINEE        FLURRIES  18  16  93 W13       29.81S WCI   4
MARSHFIELD     CLOUDY    18  13  80 NW15      29.81S WCI   4
6HR MIN TEMP:  18; 6HR MAX TEMP:  19; 6HR PCP: TRACE;

STEVENS POINT  FLURRIES  17  15  90 W5        29.82F WCI  10
WAUPACA        CLOUDY    22  16  76 W8        29.84R WCI  13
6HR MIN TEMP:  22; 6HR MAX TEMP:  24;

WAUTOMA        FLURRIES  20  15  81 W12       29.85S WCI   8
6HR MIN TEMP:  20; 6HR MAX TEMP:  22; 6HR PCP: TRACE;

WISC RAPIDS    CLOUDY    20  13  74 NW10      29.86R WCI   9
6HR MIN TEMP:  19; 6HR MAX TEMP:  21; 6HR PCP: TRACE;

CAMP DOUGLAS   NOT AVBL
$$

WIZ011>013-019>022-031-037>040-048>050-151300-
NORTHEAST WISCONSIN

CITY           SKY/WX    TMP DP  RH WIND       PRES   REMARKS
ANTIGO         FLURRIES  14  10  85 NW10      29.76S WCI   1
SHAWANO        CLOUDY    20  15  79 W3        29.81S
6HR MIN TEMP:  20; 6HR MAX TEMP:  22;

OCONTO         CLOUDY    18  12  77 W7        29.81S WCI   9
STURGEON BAY   FLURRIES  20  14  77 NW14      29.79S WCI   7
6HR MIN TEMP:  19; 6HR MAX TEMP:  21; 6HR PCP: TRACE;

GREEN BAY      CLOUDY    20  14  77 SW8       29.82S WCI  10
6HR MIN TEMP:  20; 6HR MAX TEMP:  22; 6HR PCP:  0.01;

MANITOWOC      MIX PCPN  20  15  81 W10       29.83S WCI   9
6HR MIN TEMP:  20; 6HR MAX TEMP:  22; 6HR PCP: TRACE;

APPLETON       FLURRIES  19  12  73 W10       29.80F WCI   8
CLINTONVILLE   CLOUDY    19  12  73 NW9       29.82S WCI   9
OSHKOSH        FLURRIES  21  16  81 W6        29.83S WCI  13
6HR MIN TEMP:  21; 6HR MAX TEMP:  23; 6HR PCP: TRACE;

$$

WIZ032>034-041-042-053>061-151300-
SOUTHWEST WISCONSIN

CITY           SKY/WX    TMP DP  RH WIND       PRES   REMARKS
LA CROSSE      MOCLDY    23  14  68 W12       29.92R WCI  12
6HR MIN TEMP:  23; 6HR MAX TEMP:  26;

SPARTA         CLOUDY    22  15  74 W8        29.90S WCI  13
VIROQUA        MOCLDY    21  13  72 NW14      29.87S WCI   8
6HR MIN TEMP:  21; 6HR MAX TEMP:  23;

BOSCOBEL       MOCLDY    26  14  60 W8        29.94R WCI  18
6HR MIN TEMP:  25; 6HR MAX TEMP:  27;

PRAIRIE DU CHI CLOUDY    25  17  70 W9        29.95R WCI  16
PLATTEVILLE    CLOUDY    25  18  76 W14G20    29.91S WCI  13
$$

WIZ056-057-062-063-064-067-068-151300-
SOUTH CENTRAL WISCONSIN

CITY           SKY/WX    TMP DP  RH WIND       PRES   REMARKS
REEDSBURG      CLOUDY    23  15  71 NW9       29.87S WCI  13
BARABOO/DELLS  FLURRIES  22  16  78 W9        29.86F WCI  11
LONE ROCK      NOT AVBL
MINERAL POINT  FLURRIES  27  19  74 W21G26    29.88S WCI  13
MADISON        FLURRIES  23  15  71 VRB7      29.88S WCI  15
6HR MIN TEMP:  22; 6HR MAX TEMP:  24; 6HR PCP: TRACE;

MIDDLETON      CLOUDY    24  18  75 W10       29.88S WCI  14
WATERTOWN      LGT SNOW  22  19  88 W8        29.86S WCI  12
MONROE         CLOUDY    25  16  68 NW16G22   29.88S WCI  12
JANESVILLE     FLURRIES  27  18  69 W14       29.89S WCI  15
$$

WIZ051-052-058>065-066-070>072-151300-
SOUTHEAST WISCONSIN

CITY           SKY/WX    TMP DP  RH WIND       PRES   REMARKS
MILWAUKEE      FLURRIES  27  18  69 W17G35    29.86S WCI  14
6HR MIN TEMP:  22; 6HR MAX TEMP:  28; 6HR PCP: TRACE;

WAUKESHA       CLOUDY    21  14  73 W14G21    29.87R WCI   8
MILWAUKEE/TIMM CLOUDY    25  18  74 W17       29.86S WCI  11
RACINE         MIX PCPN  25  18  74 W12G22    29.88S WCI  14
6HR MIN TEMP:  21; 6HR MAX TEMP:  25; 6HR PCP: TRACE;

BURLINGTON     MOCLDY    23  18  80 W13       29.88R WCI  11
KENOSHA        CLOUDY    25  16  68 W17G28    29.87S WCI  12
6HR MIN TEMP:  22; 6HR MAX TEMP:  26;

FOND DU LAC    FLURRIES  22  15  75 W6        29.84S WCI  14
6HR MIN TEMP:  22; 6HR MAX TEMP:  23; 6HR PCP: TRACE;

SHEBOYGAN      CLOUDY    21  16  81 W10       29.83S WCI  10
6HR MIN TEMP:  19; 6HR MAX TEMP:  22; 6HR PCP: TRACE;

WEST BEND      CLOUDY    23  19  86 W10       29.84S WCI  12
JUNEAU         LGT SNOW  20  17  86 W3        29.86S
$$

LSZ147-162-151300-
LAKE SUPERIOR

STATION/POSITION TIME  TEMP    WIND        PRES    WAVE
                       AIR SEA DIR/SP/G            HT/PER
                 (UTC) (F)     (DEG/KT/KT) (MB)    (FT/S)
DEVILS ISLAND    1100   17     300/ 12/ 15 1011.9F
SAXON HARBOR     1140   16                 1010.8S
$$

LMZ867-665-643>646-151300-
LAKE MICHIGAN

STATION/POSITION TIME  TEMP    WIND        PRES    WAVE
                       AIR SEA DIR/SP/G            HT/PER
                 (UTC) (F)     (DEG/KT/KT) (MB)    (FT/S)
NORTHPORT PIER   1140   21     280/  6/ 13 1008.1S
KEWAUNEE LAKESHO 1130   20     270/  8/ 14 1008.7S
SHEBOYGAN LAKESH 1100   22     280/ 12/ 15 1011.4F
PORT WASHINGTON  1130   24     280/  5/ 15 1011.9S
MILWAUKEE LAKESH 1130   25     280/  9/ 11   N/A
KENOSHA   LAKESH 1100   25     250/  9/ 11 1011.9
$$

TC  - TEMPERATURE IN CELSIUS
VSB - VISIBILITY IN STATUTE MILES
WCI - WIND CHILL INDEX
HX  - HEAT INDEX




USA.gov is the U.S. government's official web portal to all federal, state and local government web resources and services.